owner,sensor,date,latitude,longitude,vertical_datum,direction_of_sea_water_velocity,sea_water_speed,upward_sea_water_velocity,qcFlag 
TABS,ioos:station:wmo:42047:1,2002-11-01T00:30:00Z,27.8966,-93.5973,2.0,273.8481913,19.22333218,-99999.0,'11111222,11111222,99999999' 
TABS,ioos:station:wmo:42047:1,2002-11-01T01:00:00Z,27.8966,-93.5973,2.0,274.3164383,16.47672601,-99999.0,'11111222,11111222,99999999' 
TABS,ioos:station:wmo:42047:1,2002-11-01T01:30:00Z,27.8966,-93.5973,2.0,285.417724,15.79850942,-99999.0,'11111222,11111222,99999999' 
TABS,ioos:station:wmo:42047:1,2002-11-01T02:00:00Z,27.8966,-93.5973,2.0,287.9911832,16.31784299,-99999.0,'11111222,11111222,99999999' 
TABS,ioos:station:wmo:42047:1,2002-11-01T02:30:00Z,27.8966,-93.5973,2.0,282.8517287,18.88301088,-99999.0,'11111222,11111222,99999999' 
TABS,ioos:station:wmo:42047:1,2002-11-01T03:30:00Z,27.8966,-93.5973,2.0,297.6011332,16.57644413,-99999.0,'11111222,11111222,99999999' 
TABS,ioos:station:wmo:42047:1,2002-11-01T04:00:00Z,27.8966,-93.5973,2.0,293.086041,15.99052845,-99999.0,'11111222,11111222,99999999' 
TABS,ioos:station:wmo:42047:1,2002-11-01T04:30:00Z,27.8966,-93.5973,2.0,299.1294433,14.19535487,-99999.0,'11111222,11111222,99999999' 
TABS,ioos:station:wmo:42047:1,2002-11-01T05:00:00Z,27.8966,-93.5973,2.0,286.2050341,16.08920756,-99999.0,'11111222,11111222,99999999' 
TABS,ioos:station:wmo:42047:1,2002-11-01T05:30:00Z,27.8966,-93.5973,2.0,294.6580106,14.64541566,-99999.0,'11111222,11111222,99999999' 
TABS,ioos:station:wmo:42047:1,2002-11-01T06:30:00Z,27.8966,-93.5973,2.0,302.6993235,12.34669996,-99999.0,'11111222,11111222,99999999' 
TABS,ioos:station:wmo:42047:1,2002-11-01T07:00:00Z,27.8966,-93.5973,2.0,313.8499553,14.08840658,-99999.0,'11111222,11111222,99999999' 
TABS,ioos:station:wmo:42047:1,2002-11-01T07:30:00Z,27.8966,-93.5973,2.0,295.5193716,13.71832716,-99999.0,'11111222,11111222,99999999' 
TABS,ioos:station:wmo:42047:1,2002-11-01T08:00:00Z,27.8966,-93.5973,2.0,293.2139718,10.0213073,-99999.0,'11111222,11111222,99999999' 
TABS,ioos:station:wmo:42047:1,2002-11-01T08:30:00Z,27.8966,-93.5973,2.0,295.4881829,13.08330998,-99999.0,'11111222,11111222,99999999' 
TABS,ioos:station:wmo:42047:1,2002-11-01T09:30:00Z,27.8966,-93.5973,2.0,301.4982218,12.32613889,-99999.0,'11111222,11111222,99999999' 
TABS,ioos:station:wmo:42047:1,2002-11-01T10:00:00Z,27.8966,-93.5973,2.0,297.5083838,13.31535204,-99999.0,'11111222,11111222,99999999' 
TABS,ioos:station:wmo:42047:1,2002-11-01T10:30:00Z,27.8966,-93.5973,2.0,312.4877998,12.25887434,-99999.0,'11111222,11111222,99999999' 
TABS,ioos:station:wmo:42047:1,2002-11-01T11:00:00Z,27.8966,-93.5973,2.0,308.3184678,10.99951363,-99999.0,'11111222,11111222,99999999' 
TABS,ioos:station:wmo:42047:1,2002-11-01T11:30:00Z,27.8966,-93.5973,2.0,314.6902401,11.75935798,-99999.0,'11111222,11111222,99999999' 
TABS,ioos:station:wmo:42047:1,2002-11-01T12:30:00Z,27.8966,-93.5973,2.0,316.6246365,13.22113838,-99999.0,'11111222,11111222,99999999' 
TABS,ioos:station:wmo:42047:1,2002-11-01T13:00:00Z,27.8966,-93.5973,2.0,310.3685022,11.99635361,-99999.0,'11111222,11111222,99999999' 
TABS,ioos:station:wmo:42047:1,2002-11-01T13:30:00Z,27.8966,-93.5973,2.0,307.9792253,12.09026468,-99999.0,'11111222,11111222,99999999' 
TABS,ioos:station:wmo:42047:1,2002-11-01T14:00:00Z,27.8966,-93.5973,2.0,312.2976828,11.39709612,-99999.0,'11111222,11111222,99999999' 
TABS,ioos:station:wmo:42047:1,2002-11-01T14:30:00Z,27.8966,-93.5973,2.0,321.7803897,10.78099253,-99999.0,'11111222,11111222,99999999' 
TABS,ioos:station:wmo:42047:1,2002-11-01T15:30:00Z,27.8966,-93.5973,2.0,323.1816474,11.18000447,-99999.0,'11111222,11111222,99999999' 
TABS,ioos:station:wmo:42047:1,2002-11-01T16:00:00Z,27.8966,-93.5973,2.0,315.7770328,10.95409056,-99999.0,'11111222,11111222,99999999' 
TABS,ioos:station:wmo:42047:1,2002-11-01T16:30:00Z,27.8966,-93.5973,2.0,322.380465,8.862759164,-99999.0,'11133222,11111222,99999999' 
TABS,ioos:station:wmo:42047:1,2002-11-01T17:00:00Z,27.8966,-93.5973,2.0,313.5975921,10.68758626,-99999.0,'11111222,11111222,99999999' 
TABS,ioos:station:wmo:42047:1,2002-11-01T17:30:00Z,27.8966,-93.5973,2.0,292.4250293,6.999271391,-99999.0,'11133222,11111222,99999999' 
TABS,ioos:station:wmo:42047:1,2002-11-01T18:30:00Z,27.8966,-93.5973,2.0,308.9640082,8.5397014,-99999.0,'11133222,11111222,99999999' 
TABS,ioos:station:wmo:42047:1,2002-11-01T19:00:00Z,27.8966,-93.5973,2.0,289.8987657,6.933974329,-99999.0,'11133222,11111222,99999999' 
TABS,ioos:station:wmo:42047:1,2002-11-01T19:30:00Z,27.8966,-93.5973,2.0,290.3801695,9.131593508,-99999.0,'11133222,11111222,99999999' 
TABS,ioos:station:wmo:42047:1,2002-11-01T20:00:00Z,27.8966,-93.5973,2.0,282.2427235,10.84665847,-99999.0,'11111222,11111222,99999999' 
TABS,ioos:station:wmo:42047:1,2002-11-01T20:30:00Z,27.8966,-93.5973,2.0,264.9050578,9.346924628,-99999.0,'11133222,11111222,99999999' 
TABS,ioos:station:wmo:42047:1,2002-11-01T21:30:00Z,27.8966,-93.5973,2.0,264.5756471,9.944526133,-99999.0,'11133222,11111222,99999999' 
TABS,ioos:station:wmo:42047:1,2002-11-01T22:00:00Z,27.8966,-93.5973,2.0,271.393824,11.1032833,-99999.0,'11111222,11111222,99999999' 
TABS,ioos:station:wmo:42047:1,2002-11-01T22:30:00Z,27.8966,-93.5973,2.0,271.240235,15.71367875,-99999.0,'11111222,11111222,99999999' 
TABS,ioos:station:wmo:42047:1,2002-11-01T23:00:00Z,27.8966,-93.5973,2.0,276.6897207,13.04883137,-99999.0,'11111222,11111222,99999999' 
TABS,ioos:station:wmo:42047:1,2002-11-01T23:30:00Z,27.8966,-93.5973,2.0,282.8743246,14.94569503,-99999.0,'11111222,11111222,99999999' 
TABS,ioos:station:wmo:42047:1,2002-11-02T00:30:00Z,27.8966,-93.5973,2.0,267.0392867,15.49067139,-99999.0,'11111222,11111222,99999999' 
TABS,ioos:station:wmo:42047:1,2002-11-02T01:00:00Z,27.8966,-93.5973,2.0,275.5289609,18.16449559,-99999.0,'11111222,11111222,99999999' 
TABS,ioos:station:wmo:42047:1,2002-11-02T01:30:00Z,27.8966,-93.5973,2.0,289.1556866,18.8644772,-99999.0,'11111222,11111222,99999999' 
TABS,ioos:station:wmo:42047:1,2002-11-02T02:00:00Z,27.8966,-93.5973,2.0,280.2819394,17.59248987,-99999.0,'11111222,11111222,99999999' 
TABS,ioos:station:wmo:42047:1,2002-11-02T02:30:00Z,27.8966,-93.5973,2.0,293.4255972,20.24892343,-99999.0,'11111222,11111222,99999999' 
TABS,ioos:station:wmo:42047:1,2002-11-02T03:30:00Z,27.8966,-93.5973,2.0,283.6199185,20.34200088,-99999.0,'11111222,11111222,99999999' 
TABS,ioos:station:wmo:42047:1,2002-11-02T04:00:00Z,27.8966,-93.5973,2.0,281.4212693,18.2309901,-99999.0,'11111222,11111222,99999999' 
TABS,ioos:station:wmo:42047:1,2002-11-02T04:30:00Z,27.8966,-93.5973,2.0,292.7697843,20.33468465,-99999.0,'11111222,11111222,99999999' 
TABS,ioos:station:wmo:42047:1,2002-11-02T05:00:00Z,27.8966,-93.5973,2.0,284.0106029,21.35526399,-99999.0,'11111222,11111222,99999999' 
TABS,ioos:station:wmo:42047:1,2002-11-02T05:30:00Z,27.8966,-93.5973,2.0,271.3924342,18.93558819,-99999.0,'11111222,11111222,99999999' 
TABS,ioos:station:wmo:42047:1,2002-11-02T06:30:00Z,27.8966,-93.5973,2.0,287.5823527,15.29446959,-99999.0,'11111222,11111222,99999999' 
TABS,ioos:station:wmo:42047:1,2002-11-02T07:00:00Z,27.8966,-93.5973,2.0,304.0895296,15.12981494,-99999.0,'11111222,11111222,99999999' 
TABS,ioos:station:wmo:42047:1,2002-11-02T07:30:00Z,27.8966,-93.5973,2.0,281.1364303,16.15416045,-99999.0,'11111222,11111222,99999999' 
TABS,ioos:station:wmo:42047:1,2002-11-02T08:00:00Z,27.8966,-93.5973,2.0,293.573245,15.67832261,-99999.0,'11111222,11111222,99999999' 
TABS,ioos:station:wmo:42047:1,2002-11-02T08:30:00Z,27.8966,-93.5973,2.0,296.3017563,15.54978135,-99999.0,'11111222,11111222,99999999' 
TABS,ioos:station:wmo:42047:1,2002-11-02T09:30:00Z,27.8966,-93.5973,2.0,291.9960012,15.88632745,-99999.0,'11111222,11111222,99999999' 
TABS,ioos:station:wmo:42047:1,2002-11-02T10:00:00Z,27.8966,-93.5973,2.0,300.0979025,15.3148588,-99999.0,'11111222,11111222,99999999' 
TABS,ioos:station:wmo:42047:1,2002-11-02T10:30:00Z,27.8966,-93.5973,2.0,295.1151971,16.61036122,-99999.0,'11111222,11111222,99999999' 
TABS,ioos:station:wmo:42047:1,2002-11-02T11:00:00Z,27.8966,-93.5973,2.0,297.4066701,14.92512647,-99999.0,'11111222,11111222,99999999' 
TABS,ioos:station:wmo:42047:1,2002-11-02T11:30:00Z,27.8966,-93.5973,2.0,299.1576305,14.63438759,-99999.0,'11111222,11111222,99999999' 
TABS,ioos:station:wmo:42047:1,2002-11-02T12:30:00Z,27.8966,-93.5973,2.0,309.8058989,12.18398949,-99999.0,'11111222,11111222,99999999' 
TABS,ioos:station:wmo:42047:1,2002-11-02T13:00:00Z,27.8966,-93.5973,2.0,305.1167317,11.69947862,-99999.0,'11111222,11111222,99999999' 
TABS,ioos:station:wmo:42047:1,2002-11-02T13:30:00Z,27.8966,-93.5973,2.0,321.9752289,16.07126628,-99999.0,'11111222,11111222,99999999' 
TABS,ioos:station:wmo:42047:1,2002-11-02T14:00:00Z,27.8966,-93.5973,2.0,331.023868,16.36909588,-99999.0,'11111222,11111222,99999999' 
TABS,ioos:station:wmo:42047:1,2002-11-02T14:30:00Z,27.8966,-93.5973,2.0,332.7569044,15.4880922,-99999.0,'11111222,11111222,99999999' 
TABS,ioos:station:wmo:42047:1,2002-11-02T15:00:00Z,27.8966,-93.5973,2.0,327.021339,14.97251148,-99999.0,'11111222,11111222,99999999' 
TABS,ioos:station:wmo:42047:1,2002-11-02T15:30:00Z,27.8966,-93.5973,2.0,313.838894,15.00081664,-99999.0,'11111222,11111222,99999999' 
TABS,ioos:station:wmo:42047:1,2002-11-02T16:00:00Z,27.8966,-93.5973,2.0,322.2726369,16.03179653,-99999.0,'11111222,11111222,99999999' 
TABS,ioos:station:wmo:42047:1,2002-11-02T16:30:00Z,27.8966,-93.5973,2.0,322.9309463,10.91606614,-99999.0,'11111222,11111222,99999999' 
TABS,ioos:station:wmo:42047:1,2002-11-02T17:00:00Z,27.8966,-93.5973,2.0,320.766325,13.09114204,-99999.0,'11111222,11111222,99999999' 
TABS,ioos:station:wmo:42047:1,2002-11-02T17:30:00Z,27.8966,-93.5973,2.0,316.4332413,12.15896788,-99999.0,'11111222,11111222,99999999' 
TABS,ioos:station:wmo:42047:1,2002-11-02T18:30:00Z,27.8966,-93.5973,2.0,333.5471268,11.44868988,-99999.0,'11111222,11111222,99999999' 
TABS,ioos:station:wmo:42047:1,2002-11-02T19:00:00Z,27.8966,-93.5973,2.0,329.9466179,8.745816143,-99999.0,'11133222,11111222,99999999' 
TABS,ioos:station:wmo:42047:1,2002-11-02T19:30:00Z,27.8966,-93.5973,2.0,325.6225105,9.70517903,-99999.0,'11133222,11111222,99999999' 
TABS,ioos:station:wmo:42047:1,2002-11-02T20:00:00Z,27.8966,-93.5973,2.0,318.532602,6.312313364,-99999.0,'11133222,11111222,99999999' 
TABS,ioos:station:wmo:42047:1,2002-11-02T20:30:00Z,27.8966,-93.5973,2.0,338.4573916,7.407462453,-99999.0,'11133222,11111222,99999999' 
TABS,ioos:station:wmo:42047:1,2002-11-02T21:30:00Z,27.8966,-93.5973,2.0,299.9567415,3.023987434,-99999.0,'11133222,11111222,99999999' 
TABS,ioos:station:wmo:42047:1,2002-11-02T22:00:00Z,27.8966,-93.5973,2.0,333.4865156,4.995377864,-99999.0,'11133222,11111222,99999999' 
TABS,ioos:station:wmo:42047:1,2002-11-02T22:30:00Z,27.8966,-93.5973,2.0,318.7407132,5.853170081,-99999.0,'11133222,11111222,99999999' 
TABS,ioos:station:wmo:42047:1,2002-11-02T23:00:00Z,27.8966,-93.5973,2.0,308.950094,4.629049578,-99999.0,'11133222,11111222,99999999' 
TABS,ioos:station:wmo:42047:1,2002-11-02T23:30:00Z,27.8966,-93.5973,2.0,255.425397,1.549870962,-99999.0,'11133222,11111222,99999999' 
TABS,ioos:station:wmo:42047:1,2002-11-03T00:30:00Z,27.8966,-93.5973,2.0,310.6425071,4.559879384,-99999.0,'11133222,11111222,99999999' 
TABS,ioos:station:wmo:42047:1,2002-11-03T01:00:00Z,27.8966,-93.5973,2.0,327.0835693,2.465866987,-99999.0,'11133222,11111222,99999999' 
TABS,ioos:station:wmo:42047:1,2002-11-03T01:30:00Z,27.8966,-93.5973,2.0,305.7713728,5.422997326,-99999.0,'11133222,11111222,99999999' 
TABS,ioos:station:wmo:42047:1,2002-11-03T02:00:00Z,27.8966,-93.5973,2.0,299.4713242,4.410725564,-99999.0,'11133222,11111222,99999999' 
TABS,ioos:station:wmo:42047:1,2002-11-03T02:30:00Z,27.8966,-93.5973,2.0,334.3771346,9.24962702,-99999.0,'11133222,11111222,99999999' 
TABS,ioos:station:wmo:42047:1,2002-11-03T03:30:00Z,27.8966,-93.5973,2.0,302.9166095,10.26843708,-99999.0,'11111222,11111222,99999999' 
TABS,ioos:station:wmo:42047:1,2002-11-03T04:00:00Z,27.8966,-93.5973,2.0,318.291286,10.71619802,-99999.0,'11111222,11111222,99999999' 
TABS,ioos:station:wmo:42047:1,2002-11-03T04:30:00Z,27.8966,-93.5973,2.0,295.7420244,9.64739343,-99999.0,'11133222,11111222,99999999' 
TABS,ioos:station:wmo:42047:1,2002-11-03T05:00:00Z,27.8966,-93.5973,2.0,353.7649513,12.0613515,-99999.0,'11111222,11111222,99999999' 
TABS,ioos:station:wmo:42047:1,2002-11-03T05:30:00Z,27.8966,-93.5973,2.0,356.702435,10.77784765,-99999.0,'11111222,11111222,99999999' 
TABS,ioos:station:wmo:42047:1,2002-11-03T06:30:00Z,27.8966,-93.5973,2.0,354.5333516,8.187240072,-99999.0,'11133222,11111222,99999999' 
TABS,ioos:station:wmo:42047:1,2002-11-03T07:00:00Z,27.8966,-93.5973,2.0,338.1567383,10.10554303,-99999.0,'11111222,11111222,99999999' 
TABS,ioos:station:wmo:42047:1,2002-11-03T07:30:00Z,27.8966,-93.5973,2.0,339.5001297,7.195693156,-99999.0,'11133222,11111222,99999999' 
TABS,ioos:station:wmo:42047:1,2002-11-03T08:00:00Z,27.8966,-93.5973,2.0,316.0915294,8.91116154,-99999.0,'11133222,11111222,99999999' 
TABS,ioos:station:wmo:42047:1,2002-11-03T08:30:00Z,27.8966,-93.5973,2.0,328.3808555,9.441615328,-99999.0,'11133222,11111222,99999999' 
TABS,ioos:station:wmo:42047:1,2002-11-03T09:30:00Z,27.8966,-93.5973,2.0,339.9593055,8.462416912,-99999.0,'11133222,11111222,99999999' 
TABS,ioos:station:wmo:42047:1,2002-11-03T10:00:00Z,27.8966,-93.5973,2.0,334.5252819,8.462812771,-99999.0,'11133222,11111222,99999999' 
TABS,ioos:station:wmo:42047:1,2002-11-03T10:30:00Z,27.8966,-93.5973,2.0,337.9889787,7.604275113,-99999.0,'11133222,11111222,99999999' 
TABS,ioos:station:wmo:42047:1,2002-11-03T11:00:00Z,27.8966,-93.5973,2.0,350.5379104,8.090074165,-99999.0,'11133222,11111222,99999999' 
TABS,ioos:station:wmo:42047:1,2002-11-03T11:30:00Z,27.8966,-93.5973,2.0,332.7386521,7.357207351,-99999.0,'11133222,11111222,99999999' 
TABS,ioos:station:wmo:42047:1,2002-11-03T12:30:00Z,27.8966,-93.5973,2.0,7.528118811,13.05249785,-99999.0,'11111222,11111222,99999999' 
TABS,ioos:station:wmo:42047:1,2002-11-03T13:00:00Z,27.8966,-93.5973,2.0,4.402456104,12.37651405,-99999.0,'11111222,11111222,99999999' 
TABS,ioos:station:wmo:42047:1,2002-11-03T13:30:00Z,27.8966,-93.5973,2.0,12.95264017,18.3365482,-99999.0,'11111222,11111222,99999999' 
TABS,ioos:station:wmo:42047:1,2002-11-03T14:00:00Z,27.8966,-93.5973,2.0,11.05695276,18.19779382,-99999.0,'11111222,11111222,99999999' 
TABS,ioos:station:wmo:42047:1,2002-11-03T14:30:00Z,27.8966,-93.5973,2.0,16.35469496,18.46722502,-99999.0,'11111222,11111222,99999999' 
TABS,ioos:station:wmo:42047:1,2002-11-03T15:30:00Z,27.8966,-93.5973,2.0,25.70523066,23.53950297,-99999.0,'11111222,11111222,99999999' 
TABS,ioos:station:wmo:42047:1,2002-11-03T16:00:00Z,27.8966,-93.5973,2.0,29.94164341,27.10795086,-99999.0,'11111222,11111222,99999999' 
TABS,ioos:station:wmo:42047:1,2002-11-03T16:30:00Z,27.8966,-93.5973,2.0,37.34252843,29.34499787,-99999.0,'11111222,11111222,99999999' 
TABS,ioos:station:wmo:42047:1,2002-11-03T17:00:00Z,27.8966,-93.5973,2.0,41.53804027,27.86844093,-99999.0,'11111222,11111222,99999999' 
TABS,ioos:station:wmo:42047:1,2002-11-03T17:30:00Z,27.8966,-93.5973,2.0,49.89526563,35.30024929,-99999.0,'11111222,11111222,99999999' 
TABS,ioos:station:wmo:42047:1,2002-11-03T18:30:00Z,27.8966,-93.5973,2.0,56.30522785,33.22099487,-99999.0,'11111222,11111222,99999999' 
TABS,ioos:station:wmo:42047:1,2002-11-03T19:00:00Z,27.8966,-93.5973,2.0,60.05742197,33.77858049,-99999.0,'11111222,11111222,99999999' 
TABS,ioos:station:wmo:42047:1,2002-11-03T19:30:00Z,27.8966,-93.5973,2.0,61.30978055,29.7870257,-99999.0,'11111222,11111222,99999999' 
TABS,ioos:station:wmo:42047:1,2002-11-03T20:00:00Z,27.8966,-93.5973,2.0,69.42326777,29.1069648,-99999.0,'11111222,11111222,99999999' 
TABS,ioos:station:wmo:42047:1,2002-11-03T20:30:00Z,27.8966,-93.5973,2.0,77.44257496,26.03274284,-99999.0,'11111222,11111222,99999999' 
TABS,ioos:station:wmo:42047:1,2002-11-03T21:30:00Z,27.8966,-93.5973,2.0,87.52697413,24.10244801,-99999.0,'11111222,11111222,99999999' 
TABS,ioos:station:wmo:42047:1,2002-11-03T22:00:00Z,27.8966,-93.5973,2.0,86.14428783,23.79385635,-99999.0,'11111222,11111222,99999999' 
TABS,ioos:station:wmo:42047:1,2002-11-03T22:30:00Z,27.8966,-93.5973,2.0,86.5799318,24.4735878,-99999.0,'11111222,11111222,99999999' 
TABS,ioos:station:wmo:42047:1,2002-11-03T23:00:00Z,27.8966,-93.5973,2.0,95.58198829,21.28091398,-99999.0,'11111222,11111222,99999999' 
TABS,ioos:station:wmo:42047:1,2002-11-03T23:30:00Z,27.8966,-93.5973,2.0,85.3439029,21.68155207,-99999.0,'11111222,11111222,99999999' 
TABS,ioos:station:wmo:42047:1,2002-11-04T00:30:00Z,27.8966,-93.5973,2.0,92.80042927,19.85370998,-99999.0,'11111222,11111222,99999999' 
TABS,ioos:station:wmo:42047:1,2002-11-04T01:00:00Z,27.8966,-93.5973,2.0,94.59790742,18.08821163,-99999.0,'11111222,11111222,99999999' 
TABS,ioos:station:wmo:42047:1,2002-11-04T01:30:00Z,27.8966,-93.5973,2.0,94.51948683,16.37090407,-99999.0,'11111222,11111222,99999999' 
TABS,ioos:station:wmo:42047:1,2002-11-04T02:00:00Z,27.8966,-93.5973,2.0,96.13871359,16.64544682,-99999.0,'11111222,11111222,99999999' 
TABS,ioos:station:wmo:42047:1,2002-11-04T02:30:00Z,27.8966,-93.5973,2.0,101.9627048,13.94280101,-99999.0,'11111222,11111222,99999999' 
TABS,ioos:station:wmo:42047:1,2002-11-04T03:30:00Z,27.8966,-93.5973,2.0,101.281172,7.821112453,-99999.0,'11133222,11111222,99999999' 
TABS,ioos:station:wmo:42047:1,2002-11-04T04:00:00Z,27.8966,-93.5973,2.0,97.79469107,11.35491524,-99999.0,'11111222,11111222,99999999' 
TABS,ioos:station:wmo:42047:1,2002-11-04T04:30:00Z,27.8966,-93.5973,2.0,80.77609929,8.297288714,-99999.0,'11133222,11111222,99999999' 
TABS,ioos:station:wmo:42047:1,2002-11-04T05:00:00Z,27.8966,-93.5973,2.0,95.39708622,6.910636729,-99999.0,'11133222,11111222,99999999' 
TABS,ioos:station:wmo:42047:1,2002-11-04T05:30:00Z,27.8966,-93.5973,2.0,109.0837208,6.422997742,-99999.0,'11133222,11111222,99999999' 
TABS,ioos:station:wmo:42047:1,2002-11-04T06:30:00Z,27.8966,-93.5973,2.0,131.6461405,3.747012143,-99999.0,'11133222,11111222,99999999' 
TABS,ioos:station:wmo:42047:1,2002-11-04T07:00:00Z,27.8966,-93.5973,2.0,183.6409663,3.306675067,-99999.0,'11133222,11111222,99999999' 
TABS,ioos:station:wmo:42047:1,2002-11-04T07:30:00Z,27.8966,-93.5973,2.0,191.2881315,5.21080608,-99999.0,'11133222,11111222,99999999' 
TABS,ioos:station:wmo:42047:1,2002-11-04T08:00:00Z,27.8966,-93.5973,2.0,238.1216119,7.630943585,-99999.0,'11133222,11111222,99999999' 
TABS,ioos:station:wmo:42047:1,2002-11-04T08:30:00Z,27.8966,-93.5973,2.0,232.0280641,9.361730609,-99999.0,'11133222,11111222,99999999' 
TABS,ioos:station:wmo:42047:1,2002-11-04T09:30:00Z,27.8966,-93.5973,2.0,246.2256676,7.714641923,-99999.0,'11133222,11111222,99999999' 
TABS,ioos:station:wmo:42047:1,2002-11-04T10:00:00Z,27.8966,-93.5973,2.0,267.5004566,7.797416239,-99999.0,'11133222,11111222,99999999' 
TABS,ioos:station:wmo:42047:1,2002-11-04T10:30:00Z,27.8966,-93.5973,2.0,286.5524787,8.950916154,-99999.0,'11133222,11111222,99999999' 
TABS,ioos:station:wmo:42047:1,2002-11-04T11:00:00Z,27.8966,-93.5973,2.0,286.6889416,10.27268709,-99999.0,'11111222,11111222,99999999' 
TABS,ioos:station:wmo:42047:1,2002-11-04T11:30:00Z,27.8966,-93.5973,2.0,303.8736574,10.4062289,-99999.0,'11111222,11111222,99999999' 
TABS,ioos:station:wmo:42047:1,2002-11-04T12:30:00Z,27.8966,-93.5973,2.0,319.289459,12.48003205,-99999.0,'11111222,11111222,99999999' 
TABS,ioos:station:wmo:42047:1,2002-11-04T13:00:00Z,27.8966,-93.5973,2.0,335.5190029,15.25112455,-99999.0,'11111222,11111222,99999999' 
TABS,ioos:station:wmo:42047:1,2002-11-04T13:30:00Z,27.8966,-93.5973,2.0,352.3262312,16.69956287,-99999.0,'11111222,11111222,99999999' 
TABS,ioos:station:wmo:42047:1,2002-11-04T14:00:00Z,27.8966,-93.5973,2.0,359.9719999,20.31000246,-99999.0,'11111222,11144222,99999999' 
TABS,ioos:station:wmo:42047:1,2002-11-04T14:30:00Z,27.8966,-93.5973,2.0,356.7125466,20.92443787,-99999.0,'11111222,11111222,99999999' 
TABS,ioos:station:wmo:42047:1,2002-11-04T15:30:00Z,27.8966,-93.5973,2.0,2.965741527,23.58157968,-99999.0,'11111222,11111222,99999999' 
TABS,ioos:station:wmo:42047:1,2002-11-04T16:00:00Z,27.8966,-93.5973,2.0,6.788580484,23.01132113,-99999.0,'11111222,11111222,99999999' 
TABS,ioos:station:wmo:42047:1,2002-11-04T16:30:00Z,27.8966,-93.5973,2.0,7.803140191,22.53868896,-99999.0,'11111222,11111222,99999999' 
TABS,ioos:station:wmo:42047:1,2002-11-04T17:00:00Z,27.8966,-93.5973,2.0,11.46618187,23.03980903,-99999.0,'11111222,11111222,99999999' 
TABS,ioos:station:wmo:42047:1,2002-11-04T17:30:00Z,27.8966,-93.5973,2.0,12.06445575,21.00389726,-99999.0,'11111222,11111222,99999999' 
TABS,ioos:station:wmo:42047:1,2002-11-04T18:30:00Z,27.8966,-93.5973,2.0,14.67034171,25.42899133,-99999.0,'11111222,11111222,99999999' 
TABS,ioos:station:wmo:42047:1,2002-11-04T19:00:00Z,27.8966,-93.5973,2.0,47.99862985,29.87373596,-99999.0,'11111222,11111222,99999999' 
TABS,ioos:station:wmo:42047:1,2002-11-04T19:30:00Z,27.8966,-93.5973,2.0,49.87272317,29.63588365,-99999.0,'11111222,11111222,99999999' 
TABS,ioos:station:wmo:42047:1,2002-11-04T20:00:00Z,27.8966,-93.5973,2.0,50.22328727,30.6033789,-99999.0,'11111222,11111222,99999999' 
TABS,ioos:station:wmo:42047:1,2002-11-04T20:30:00Z,27.8966,-93.5973,2.0,55.4714374,33.73215825,-99999.0,'11111222,11111222,99999999' 
TABS,ioos:station:wmo:42047:1,2002-11-04T21:30:00Z,27.8966,-93.5973,2.0,63.07901188,36.70800049,-99999.0,'11111222,11111222,99999999' 
TABS,ioos:station:wmo:42047:1,2002-11-04T22:00:00Z,27.8966,-93.5973,2.0,68.29016801,39.52344621,-99999.0,'11111222,11111222,99999999' 
TABS,ioos:station:wmo:42047:1,2002-11-04T22:30:00Z,27.8966,-93.5973,2.0,69.23059331,39.59295392,-99999.0,'11111222,11111222,99999999' 
TABS,ioos:station:wmo:42047:1,2002-11-04T23:00:00Z,27.8966,-93.5973,2.0,71.20738286,41.53416425,-99999.0,'11111222,11111222,99999999' 
TABS,ioos:station:wmo:42047:1,2002-11-04T23:30:00Z,27.8966,-93.5973,2.0,73.48526955,41.0536052,-99999.0,'11111222,11111222,99999999' 
TABS,ioos:station:wmo:42047:1,2002-11-05T00:30:00Z,27.8966,-93.5973,2.0,74.59743816,40.88858031,-99999.0,'11111222,11111222,99999999' 
TABS,ioos:station:wmo:42047:1,2002-11-05T01:00:00Z,27.8966,-93.5973,2.0,75.88693183,41.58519568,-99999.0,'11111222,11111222,99999999' 
TABS,ioos:station:wmo:42047:1,2002-11-05T01:30:00Z,27.8966,-93.5973,2.0,79.71657022,40.72416727,-99999.0,'11111222,11111222,99999999' 
TABS,ioos:station:wmo:42047:1,2002-11-05T02:00:00Z,27.8966,-93.5973,2.0,79.61240992,37.7690164,-99999.0,'11111222,11111222,99999999' 
TABS,ioos:station:wmo:42047:1,2002-11-05T02:30:00Z,27.8966,-93.5973,2.0,78.42391758,36.72706495,-99999.0,'11111222,11111222,99999999' 
TABS,ioos:station:wmo:42047:1,2002-11-05T03:30:00Z,27.8966,-93.5973,2.0,81.65906692,33.43364922,-99999.0,'11111222,11111222,99999999' 
TABS,ioos:station:wmo:42047:1,2002-11-05T04:00:00Z,27.8966,-93.5973,2.0,83.32691447,30.97987895,-99999.0,'11111222,11111222,99999999' 
TABS,ioos:station:wmo:42047:1,2002-11-05T04:30:00Z,27.8966,-93.5973,2.0,82.01437519,29.72827778,-99999.0,'11111222,11111222,99999999' 
TABS,ioos:station:wmo:42047:1,2002-11-05T05:00:00Z,27.8966,-93.5973,2.0,78.90510884,27.6976768,-99999.0,'11111222,11111222,99999999' 
TABS,ioos:station:wmo:42047:1,2002-11-05T05:30:00Z,27.8966,-93.5973,2.0,75.01513225,26.22169522,-99999.0,'11111222,11111222,99999999' 
TABS,ioos:station:wmo:42047:1,2002-11-05T06:30:00Z,27.8966,-93.5973,2.0,71.76159989,25.81698666,-99999.0,'11111222,11111222,99999999' 
TABS,ioos:station:wmo:42047:1,2002-11-05T07:00:00Z,27.8966,-93.5973,2.0,72.50305315,24.14722551,-99999.0,'11111222,11111222,99999999' 
TABS,ioos:station:wmo:42047:1,2002-11-05T07:30:00Z,27.8966,-93.5973,2.0,77.05773102,21.34217421,-99999.0,'11111222,11111222,99999999' 
TABS,ioos:station:wmo:42047:1,2002-11-05T08:00:00Z,27.8966,-93.5973,2.0,69.97574061,22.57469823,-99999.0,'11111222,11111222,99999999' 
TABS,ioos:station:wmo:42047:1,2002-11-05T08:30:00Z,27.8966,-93.5973,2.0,66.40984599,20.93992598,-99999.0,'11111222,11111222,99999999' 
TABS,ioos:station:wmo:42047:1,2002-11-05T09:30:00Z,27.8966,-93.5973,2.0,72.89952689,19.0104445,-99999.0,'11111222,11111222,99999999' 